Other Public Products
Issued by NWS Grand Forks, ND

Home | Current Version | Previous Version | Graphics & Text | Print | Product List | Glossary Off
Versions: 1 2 3 4 5 6 7 8 9 10 11 12 13 14 15 16 17 18 19 20 21 22 23 24 25 26 27 28 29 30 31 32 33 34 35 36 37 38 39 40 41 42 43 44 45 46 47 48 49 50

000
FPUS83 KFGF 180431
OPUFGF
PRAIRIE TO PINES WEATHER ROUNDUP
NATIONAL WEATHER SERVICE EASTERN NORTH DAKOTA/GRAND FORKS ND
1100 PM CDT TUE OCT 17 2017

 **SATELLITE DATA USED TO AUGMENT SKY COVER AT AUTOMATED STATIONS**
 *****  WEATHER ACROSS EASTERN NORTH DAKOTA  *****

CITY           SKY/WX    TMP DP  RH WIND       PRES   REMARKS
GRAND FORKS    FAIR      55  38  52 S14       29.60F
GRAND FORKS AF FAIR      59  34  38 SW12      29.59F
GRAND CITY NWS NOT AVBL
BUXTON           N/A     54  40  59 S8          N/A
DEVILS LAKE    FAIR      57  36  45 SW16      29.57F
FARGO          FAIR      59  42  53 S14       29.68F
WAHPETON ARPT  NOT AVBL
$$

 *****  WEATHER ACROSS CENTRAL AND WESTERN NORTH DAKOTA  *****

CITY           SKY/WX    TMP DP  RH WIND       PRES   REMARKS
JAMESTOWN      FAIR      53  35  50 S9        29.66F
BISMARCK       FAIR      61  23  23 S5        29.65F
MINOT          FAIR      65  27  23 SW13G20   29.50F
MINOT AFB      FAIR      65  26  23 SW18G26   29.47F
GARRISON         N/A     62  29  28 SW15      29.57F
WILLISTON      FAIR      58  27  30 S6        29.49F
DICKINSON      FAIR      58  25  28 S14       29.62F
HETTINGER      FAIR      55  24  30 SW14      29.73S
$$

 *****  OTHER OBSERVATIONS NORTHEAST NORTH DAKOTA  *****

CITY           SKY/WX    TMP DP  RH WIND       PRES   REMARKS
WALHALLA       FAIR     N/A N/A N/A SW16G25   29.50F
LANGDON        FAIR      54  32  43 SW18      29.53F
CAVALIER       FAIR      54  36  50 S9        29.52F
GRAFTON        FAIR      54  34  47 S13       29.56F
CANDO          FAIR      55  28  35 S12       29.54F
FORT TOTTEN      N/A     58  27  30 S10       29.95S
ROLLA          FAIR      52  28  40 SW12      29.52S
RUGBY            N/A     55  28  35 S15       29.51F
 ***** THE ABOVE OBSERVATIONS ARE NON NWS ARE NOT QUALITY
        CONTROLLED AND MAY MIS-REPORT RAIN FOR SNOW...
$$

 *****  OTHER OBSERVATIONS SOUTHEAST NORTH DAKOTA *****

CITY           SKY/WX    TMP DP  RH WIND       PRES   REMARKS
COOPERSTOWN    FAIR      59  34  38 SW17G23   29.63F
VALLEY CITY    FAIR      59  37  44 SW17G24   29.68F
OAKES          NOT AVBL
GWINNER        CLEAR     55  41  58 S14       29.71F
SHEYENNE NWR     N/A     55  41  59 S8        29.95S
BUFFALO          N/A     58  33  38 SW15        N/A
WYNDMERE       NOT AVBL
 ***** THE ABOVE OBSERVATIONS ARE NON NWS ARE NOT QUALITY
       CONTROLLED AND MAY MIS-REPORT RAIN FOR SNOW...
$$

  *****  WEATHER ACROSS NORTHERN MINNESOTA  *****

CITY           SKY/WX    TMP DP  RH WIND       PRES   REMARKS
FLAG ISLAND    FAIR      54  46  76 S10       29.58F
WARROAD        FAIR      61  45  55 S9        29.59F
ROSEAU         FAIR      57  45  62 S13       29.59F
HALLOCK        FAIR      55  34  44 S14       29.54F
THF RVR FALLS  FAIR      60  40  47 S12       29.65F
HALSTAD          N/A     54  41  60 S12         N/A
FOSSTON        FAIR      59  37  44 S15       29.69F
BAUDETTE       FAIR      57  40  52 S12       29.64F
WASKISH        FAIR      61  41  48 S7        29.68F
CROOKSTON      FAIR      59  41  51 S15       29.64S
$$
  *****  WEATHER ACROSS CENTRAL AND WEST MINNESOTA  *****

CITY           SKY/WX    TMP DP  RH WIND       PRES   REMARKS
BEMIDJI        FAIR      58  40  50 S9        29.72F
PARK RAPIDS    FAIR      53  41  63 S8        29.77F
WADENA         FAIR      54  39  58 S7        29.78F
DETROIT LAKES  FAIR      61  41  48 S12       29.74F
MOORHEAD       FAIR      54  43  66 S8        29.70F
FERGUS FALLS   FAIR      54  43  66 S8        29.76F
ELBOW LAKE     FAIR      53  41  62 S10       29.79F
MORRIS MN      FAIR      52  41  66 S9        29.80F
STAPLES        FAIR      52  37  58 S8        29.80F
WHEATON        FAIR      57  39  51 S13       29.78F
$$
  *****  WEATHER ELSEWHERE ACROSS MINNESOTA  *****

CITY           SKY/WX    TMP DP  RH WIND       PRES   REMARKS
DULUTH         FAIR      58  42  55 SW10      29.85S
INTRNTL FALLS  FAIR      59  37  44 S9        29.69F
ELY            FAIR      57  37  47 S7        29.80F
CLOQUET        FAIR      54  39  58 S3        29.84F
BRAINERD       FAIR      56  39  53 S9        29.82S
HIBBING        FAIR      53  38  56 S5        29.80F
ALEXANDRIA     FAIR      60  40  47 S13       29.83S
SAINT CLOUD    FAIR      54  42  64 S8        29.86S
MINNEAPOLIS    FAIR      63  45  51 SW8       29.90F
$$

  *****  WEATHER ACROSS SOUTH DAKOTA  *****

CITY           SKY/WX    TMP DP  RH WIND       PRES   REMARKS
SIOUX FALLS    FAIR      60  47  61 S13       29.90F
BROOKINGS      FAIR      57  42  57 S12       29.88S
WATERTOWN      FAIR      54  40  59 S10       29.83F
HURON          FAIR      58  41  53 S10       29.80F
SISSETON         N/A     65  40  39 S9        29.75F
ABERDEEN       FAIR      47  41  80 S10       29.75F
MITCHELL       FAIR      60  40  47 S14       29.84F
PIERRE         FAIR      45  37  73 CALM      29.75F
MOBRIDGE       FAIR      52  42  69 SE8       29.71F
RAPID CITY     FAIR      47  25  42 NW8       29.82F
$$

  *****  SOME WEATHER IN NEARBY STATES *****

CITY           SKY/WX    TMP DP  RH WIND       PRES   REMARKS
GLASGOW MT     FAIR      63  26  24 W18       29.52R
GREAT FALLS MT FAIR      60  24  25 W31G46    29.73R
CHEYENNE WY    FAIR      52  17  25 SW8       30.10F
SCOTTSBLUFF NE FAIR      50  24  36 N7        29.97S
OMAHA NE       FAIR      55  46  71 SE7       30.00S
DES MOINES IA  FAIR      56  46  69 S8        30.04F
DAVENPORT IA   FAIR      58  41  53 S14       30.13S
CHICAGO IL     FAIR      57  41  55 S10       30.14F
EAU CLAIRE WI  FAIR      54  45  71 S3        29.95S
LA CROSSE WI   FAIR      60  46  59 S12       30.00R
$$

  *****  SOME NATIONAL WEATHER *****

CITY           SKY/WX    TMP DP  RH WIND       PRES   REMARKS
LA GUARDIA NY  FAIR      55  38  52 SW9       30.28F
RALEIGH NC     FAIR      44  42  93 CALM      30.34F
ATLANTA GA     FAIR      54  45  71 E6        30.30R
NEW ORLEANS LA FAIR      64  62  93 CALM      30.18R
OKLAHOMA CITY  FAIR      54  45  71 S9        30.12S
ALBUQUERQUE NM FAIR      58  26  29 E6        30.22S
SALT LAKE CITY MOCLDY    51  34  52 S3        30.13R
LOS ANGELES CA FAIR      73  57  57 S5        29.91S
BOISE ID       FAIR      47  33  58 CALM      30.09R
SEATTLE WA     FAIR      53  39  59 VRB6      30.12R
$$

*** WEATHER ACROSS MANITOBA...SASKATCHEWAN AND ONTARIO ***
                ***ONTARIO***

CITY           SKY/WX    TMP DP  RH WIND       PRES   REMARKS
GERALDTON      CLOUDY    39  37  93 SE5       29.87F
THUNDER BAY    CLEAR     43  43 100 CALM      29.85F
SIOUX LOOKOUT  CLEAR     52  39  62 S6        29.65F
TORONTO        CLEAR     54  43  66 W9        30.13S
BIG TROUT LK   CLOUDY    37  32  81 SE14G20   29.74F
PICKLE LAKE    NOT AVBL
DRYDEN         CLEAR     57  39  51 S14       29.63F
KENORA         CLEAR     57  39  51 S12G18    29.58
$$
                *** MANITOBA***

CITY           SKY/WX    TMP DP  RH WIND       PRES   REMARKS
BRANDON        PTCLDY    63  32  31 SW18G28   29.39F
DAUPHIN        CLEAR     66  30  26 SW23G35   29.25F
ISLAND LAKE    MOCLDY    43  36  75 SE22G33   29.44F
PILOT MOUND      N/A     54  32  43 S14         N/A
THE PAS        PTCLDY    48  39  71 SE15      29.03F
THOMPSON       CLOUDY    37  32  81 E12G17    29.32F
WINNIPEG       CLEAR     57  34  41 S15       29.46F
LYNN LAKE      LGT RAIN  34  34 100 E16G23    29.19F WCI  23
CHURCHILL      CLOUDY    25  23  93 SE9       29.73F WCI  15
GILLAM         CLOUDY    32  30  93 E7G17     29.59F
$$
                ***SASKATCHEWAN***

CITY           SKY/WX    TMP DP  RH WIND       PRES   REMARKS
ESTEVAN        PTCLDY    61  27  27 SW20G25   29.40F
KINDERSLEY     CLOUDY    45  36  70 W25G40    29.42R
LLOYDMINSTER   CLOUDY    41  36  81 W33G48    29.27R
PRINCE ALBERT  PTCLDY    64  34  32 SW13G20   28.88F
REGINA         LGT RAIN  66  32  28 W59G74    29.30R
YORKTON        CLEAR     59  27  29 S16       29.21F


USA.gov is the U.S. government's official web portal to all federal, state and local government web resources and services.